Preview of NWS' New Version of Forecast
This preview is not operational and should not be used for support decisions.
Latest weather observations around

San Jose, San Jose International Airport (KSJC)

Using English Units (Switch to International System of Units)
Date/ Time (PST) Wind (mph) Vis. (mi) Weather Sky Cond. Temp (°F) Rel. Humidity Wind Chill (°F) Heat Index (°F) Pressure Precip. (in)
Air Dwpt 6 hour Altimeter (inHg) Sea level (inHg) 1 hr 3 hr 6 hr
Max Min
Feb 19 05:53 SSW 3 10 Clear CLR 34 29     82% 31   30.21 30.2      
Feb 19 04:53 E 3 10 Clear CLR 36 29     75% 33   30.2 30.2      
Feb 19 03:53 Calm 10 Clear   36 30     79%     30.2 30.2      
Feb 19 02:53 SSE 3 10 Clear CLR 36 30     79% 33   30.21 30.21      
Feb 19 01:53 S 3 10 Clear CLR 36 30     79% 33   30.22 30.22      
Feb 19 00:53 Calm 10 Clear CLR 40 31     70%     30.23 30.22      
Feb 18 23:53 ESE 3 10 Clear CLR 39 30     70% 37   30.23 30.22      
Feb 18 22:53 Calm 10 Clear CLR 43 28     55%     30.23 30.23      
Feb 18 21:53 WNW 5 10 Clear CLR 42 30     62% 39   30.23 30.23      
Feb 18 20:53 W 3 10 Clear CLR 45 29     53% 44   30.23 30.22      
Feb 18 19:53 N 3 10 Clear CLR 48 24     39% 47   30.22 30.22      
Feb 18 18:53 NNE 8 10 Clear CLR 50 24     36%     30.21 30.21      
Feb 18 17:53 NNE 8 10 Mostly Clear FEW040 51 24     35%     30.2 30.19      
Feb 18 16:53 NNE 10 10 Mostly Clear FEW040 54 23     30%     30.18 30.18      
Feb 18 15:53 N 13 10 Mostly Clear FEW050 55 24     30%     30.18 30.18     0
Feb 18 14:53 NNW 8 10 Mostly Clear FEW040 54 31     41%     30.19 30.19      
Feb 18 13:53 NW 13 10 Mostly Clear FEW040 53 32     45%     30.2 30.2      
Feb 18 12:53 NW 13 10 Mostly Clear FEW050 52 32     46%     30.22 30.22      
Feb 18 11:53 NW 9 10 Mostly Clear FEW040 51 32     48%     30.24 30.24      
Feb 18 10:53 NW 10 10 Clear CLR 49 33     54% 45   30.25 30.24      
Feb 18 09:53 NW 10 10 Clear CLR 47 34     60% 42   30.24 30.24      
Feb 18 08:53 NW 8 10 Clear CLR 44 35     70% 40   30.23 30.23      
Feb 18 07:53 NNW 8 10 Clear CLR 39 34     82% 33   30.21 30.21      
Feb 18 06:53 Calm 10 Clear CLR 37 35     92%     30.19 30.19      
Feb 18 05:53 Calm 10 Clear CLR 36 35     96%     30.18 30.17      
Feb 18 04:53 Calm 10 Clear CLR 36 35     96%     30.16 30.16      
Feb 18 03:53 Calm 10 Clear CLR 37 36     96%     30.14 30.14      
Feb 18 02:53 Calm 10 Clear CLR 38 37     97%     30.15 30.14      
Feb 18 01:53 Calm 10 Clear CLR 38 37     97%     30.15 30.14      
Feb 18 00:53 WSW 3 10 Clear   39 38     96% 37   30.14 30.14      
Feb 17 23:53 Calm 10 Clear CLR 41 37     86%     30.12 30.12      
Feb 17 22:53 Calm 10 Mostly Clear FEW030 43 38     82%     30.12 30.11      
Feb 17 21:53 Calm 10 Mostly Clear FEW042 43 38     82%     30.1 30.09      
Feb 17 20:53 SW 6 10 Mostly Cloudy FEW011 SCT050 BKN080 43 38     82% 39   30.08 30.08      
Feb 17 19:53 ESE 5 10 Partly Cloudy FEW016 SCT043 43 36     76% 40   30.07 30.06      
Feb 17 18:53 WNW 9 10 Mostly Cloudy FEW025 SCT050 BKN090 47 39     74% 43   30.05 30.04      
Feb 17 17:53 WNW 15 10 Mostly Cloudy FEW025 SCT050 BKN090 48 37     66% 42   30.03 30.02      
Feb 17 16:53 WNW 15 10 Mostly Cloudy SCT035 SCT050 BKN090 50 36     58%     30 30      
Feb 17 15:53 NW 20 10 Mostly Cloudy and Windy SCT035 SCT050 BKN090 52 34     50%     30 30     0
Feb 17 14:53   10 Mostly Cloudy SCT035 SCT050 BKN090 53 38     56%     30 30      
Feb 17 13:53 NW 17 10 Partly Cloudy SCT035 SCT050 SCT090 53 40     61%     30.01 30.01      
Feb 17 12:53 NNW 13 10 Partly Cloudy SCT035 SCT090 52 39     61%     30.03 30.03   0  
Feb 17 11:53 NNW 14 10 Mostly Cloudy FEW030 BKN090 51 40     65%     30.05 30.05 0    
Feb 17 10:53   10 Mostly Cloudy SCT030 BKN100 50 38     63%     30.05 30.05 0    
Feb 17 09:53 NW 11 10 Mostly Cloudy FEW025 BKN030 BKN090 49 42     77% 44   30.05 30.04     0
Feb 17 08:53 Calm 10 Mostly Cloudy FEW008 BKN030 BKN090 46 41     82%     30.05 30.05      
Feb 17 07:53 ESE 5 10 Mostly Cloudy FEW005 BKN030 43 42     97% 40   30.05 30.04      
Feb 17 06:53 5 10 Partly Cloudy FEW001 FEW010 SCT017 42 42     100% 39   30.03 30.03 0 0  
Feb 17 05:53 S 8 10 Light Rain FEW003 SCT030 BKN045 43 42     97% 38   30.04 30.03 0    
Feb 17 05:22 S 7 5 Light Rain and Fog/Mist OVC029 43 42     97% 39   30.04   0    
Feb 17 04:53 SSE 7 5 Light Rain and Fog/Mist SCT025 OVC031 43 42     97% 39   30.04 30.04 0    
Feb 17 04:13 SE 6 8 Rain SCT026 OVC035 43 42     97% 39   30.05   0    
Feb 17 03:53 SE 6 10 Cloudy OVC025 43 42     97% 39   30.06 30.05 0   0
Feb 17 03:37 SE 3 10 Cloudy BKN029 OVC034 42 41     96% 40   30.07   0    
Feb 17 02:53 SSE 6 7 Rain OVC035 42 40     92% 38   30.09 30.09 0    
Feb 17 01:53 SE 5 10 Mostly Cloudy SCT047 BKN100 BKN120 40 39     97% 37   30.11 30.11      
Feb 17 00:53 S 3 10 Partly Cloudy SCT036 SCT060 41 38     89% 39   30.13 30.13      
Feb 16 23:53 W 5 10 Mostly Clear FEW015 FEW060 43 38     82% 40   30.15 30.14      
Feb 16 22:53 WSW 5 10 Mostly Clear FEW017 44 38     79% 41   30.15 30.15      
Feb 16 21:53 WNW 8 10 Clear   46 39     76% 42   30.15 30.15 0    
Feb 16 20:53 W 5 10 Partly Cloudy FEW018 SCT034 45 38     76% 43   30.14 30.13      
Feb 16 19:53 WNW 10 10 Mostly Clear FEW025 FEW085 46 39     76% 41   30.14 30.14      
Feb 16 17:53 WNW 11 10 Light Rain FEW015 SCT026 BKN033 48 41     77% 43   30.14 30.14 0    
Feb 16 16:53 WNW 15 10 Mostly Cloudy FEW005 SCT026 BKN033 50 39     66%     30.13 30.13      
Feb 16 15:53 NW 14 10 Mostly Cloudy FEW015 SCT026 BKN033 51 41     68%     30.15 30.14     0
Feb 16 14:53 WNW 16 10 Mostly Cloudy FEW015 SCT026 BKN033 51 42     71%     30.15 30.15 0    
Feb 16 13:53 NW 14 10 Light Rain FEW001 SCT026 BKN035 51 45     79%     30.16 30.16 0    
Feb 16 12:53 NW 11 10 Mostly Cloudy FEW001 BKN035 BKN070 52 42     69%     30.18 30.17 0 0  
Feb 16 11:53 NNW 13 10 Mostly Cloudy FEW001 BKN040 BKN070 52 44     74%     30.21 30.2 0    
Feb 16 11:28 WNW 11 5 Light Rain FEW001 SCT035 BKN050 49 41     74% 44   30.21   0    
Feb 16 10:53 N 10 10 Partly Cloudy FEW025 SCT035 51 45     79%     30.22 30.21 0    
Feb 16 09:53 SE 3 10 Mostly Cloudy SCT020 BKN035 BKN100 49 44     83% 48   30.22 30.21     0
Feb 16 08:53 S 5 10 Partly Cloudy FEW020 SCT045 SCT075 47 44     90% 45   30.21 30.21 0    
Feb 16 07:53 E 3 10 Mostly Cloudy FEW001 FEW020 BKN030 45 44     97% 44   30.21 30.2 0    
May 15 09:53 Calm 10 Cloudy FEW021 BKN028 OVC035 60 47     62%     30.05 30.05      
May 14 23:53 WNW 11 10 Mostly Cloudy FEW010 SCT024 BKN045 56 49     77%     30.01 30.01      
May 14 15:53 WNW 13 10 Mostly Clear FEW025 FEW032 67 51     57%     29.96 29.96      
May 14 08:53 Calm 10 Cloudy FEW012 BKN019 OVC024 59 49     69%     30 30      
May 13 19:31 NW 14 10 Mostly Clear FEW008 63 50     63%     29.97        
May 13 02:53 SE 11 10 Clear CLR 56 49     77%     29.95 29.95      
May 12 00:53 E 3 10 Clear CLR 63 49     60%     29.81 29.8      
Jun 11 20:53 WSW 13 10 Clear   58 45     62%     29.98 29.98      
Jun 10 18:53   10 Partly Cloudy FEW025 SCT037 SCT065 66 45     47%     29.93 29.93      
Jun 10 12:53   10 Partly Cloudy FEW015 SCT032 SCT050 69 47     45%     29.98 29.97      
Notice The following observation data may not be complete
Jun 10 03:34   10 Mostly Cloudy BKN023          %              
Jun 09 00:53 NW 5 10 Clear   64 61     90%     29.96 29.96      
Jun 08 16:53 ESE 8 10 Cloudy FEW009 BKN038 OVC075 70 58     66%     29.99 29.98     0
Jun 07 14:53   10 Mostly Cloudy FEW050 SCT090 BKN130 71 53     53%   70 29.92 29.91      
Jun 07 06:53 Calm 7 Mostly Cloudy FEW001 SCT007 BKN010 58 52     81%     29.93 29.92      
Jun 06 04:53 NW 5 9 Clear CLR 55 52     89%     29.93 29.92      
Jun 06 03:53 NNW 6 9 Clear CLR 56 52     87%     29.92 29.92      
Jun 05 20:53 W 9 10 Partly Cloudy FEW002 FEW065 SCT110 65 53     65%     29.89 29.88      
Jun 05 12:53 NW 10 10 Mostly Clear FEW035 FEW090 79 51     38%   78 29.89 29.88